RYR1KM EKBI-EIDW

Flight info

Callsign RYR1KM
Flight time N/A
Altitude 36000
Route BAMPI5A BAMPI P60 AMRAM L983 PETIL DCT SURAT DCT NELBO DCT NIMAT NIMAT4L
Aircraft A320/M-SDE3FGHIRWY/LB1

Departure

Time N/A
Airport Billund Airport (EKBI)

Arrival

Time 2026-05-01 15:19
Airport Dublin Airport (EIDW)
Time Latitude Longitude Altitude Speed Heading
2026-05-01 14:33 55.43815 0.01175 36164 ft 436 kts 251°
2026-05-01 14:34 55.42234 -0.09131 36170 ft 437 kts 252°
2026-05-01 14:34 55.40644 -0.19462 36159 ft 437 kts 252°
2026-05-01 14:35 55.39044 -0.29795 36160 ft 438 kts 252°
2026-05-01 14:35 55.37431 -0.40127 36158 ft 438 kts 252°
2026-05-01 14:36 55.35810 -0.50449 36150 ft 438 kts 252°
2026-05-01 14:36 55.34179 -0.60773 36148 ft 438 kts 251°
2026-05-01 14:37 55.32536 -0.71079 36145 ft 438 kts 251°
2026-05-01 14:37 55.30891 -0.81379 36145 ft 438 kts 251°
2026-05-01 14:38 55.29232 -0.91679 36135 ft 438 kts 251°
2026-05-01 14:38 55.27565 -1.01968 36137 ft 438 kts 251°
2026-05-01 14:39 55.25892 -1.12248 36145 ft 439 kts 251°
2026-05-01 14:39 55.24198 -1.22564 36137 ft 440 kts 251°
2026-05-01 14:40 55.22497 -1.32878 36129 ft 441 kts 251°
2026-05-01 14:40 55.20792 -1.43142 36126 ft 441 kts 251°
2026-05-01 14:41 55.19079 -1.53440 36128 ft 441 kts 251°
2026-05-01 14:41 55.17345 -1.63749 36128 ft 441 kts 251°
2026-05-01 14:42 55.15603 -1.74041 36134 ft 441 kts 251°
2026-05-01 14:42 55.13854 -1.84330 36129 ft 441 kts 251°
2026-05-01 14:43 55.12095 -1.94623 36114 ft 442 kts 251°
2026-05-01 14:43 55.10332 -2.04900 36120 ft 442 kts 251°
2026-05-01 14:44 55.08558 -2.15171 36131 ft 442 kts 251°
2026-05-01 14:44 55.05875 -2.30577 36158 ft 442 kts 250°
2026-05-01 14:45 55.03183 -2.45875 36160 ft 442 kts 250°
2026-05-01 14:46 55.01375 -2.56106 36156 ft 442 kts 250°
2026-05-01 14:46 54.98950 -2.69716 36156 ft 442 kts 250°
2026-05-01 14:47 54.97119 -2.79934 36153 ft 442 kts 250°
2026-05-01 14:48 54.94364 -2.95236 36143 ft 442 kts 250°
2026-05-01 14:48 54.91586 -3.10511 36150 ft 442 kts 250°
2026-05-01 14:49 54.87846 -3.30841 36173 ft 442 kts 249°
2026-05-01 14:50 54.84076 -3.51132 36169 ft 441 kts 249°
2026-05-01 14:51 54.81234 -3.66305 36166 ft 441 kts 249°
2026-05-01 14:52 54.78392 -3.81344 36188 ft 441 kts 248°
2026-05-01 14:53 54.75559 -3.96230 36171 ft 439 kts 248°
2026-05-01 14:53 54.73667 -4.06079 36168 ft 439 kts 248°
2026-05-01 14:54 54.72090 -4.14271 36167 ft 439 kts 248°
2026-05-01 14:54 54.70166 -4.24226 36161 ft 439 kts 248°
2026-05-01 14:54 54.69203 -4.29187 35398 ft 444 kts 248°
2026-05-01 14:55 54.68225 -4.34198 34649 ft 441 kts 247°
2026-05-01 14:55 54.67338 -4.38762 33570 ft 436 kts 247°
2026-05-01 14:55 54.66533 -4.42882 32345 ft 438 kts 247°
2026-05-01 14:55 54.65581 -4.47719 31532 ft 442 kts 247°
2026-05-01 14:56 54.64905 -4.51149 31355 ft 446 kts 247°
2026-05-01 14:56 54.64122 -4.55120 31127 ft 449 kts 247°
2026-05-01 14:56 54.63346 -4.59049 30761 ft 450 kts 247°
2026-05-01 14:56 54.62427 -4.63695 30315 ft 452 kts 247°
2026-05-01 14:57 54.61656 -4.67586 29918 ft 453 kts 247°
2026-05-01 14:57 54.59770 -4.77035 29039 ft 456 kts 247°
2026-05-01 14:57 54.59093 -4.80427 28733 ft 456 kts 247°
2026-05-01 14:58 54.58491 -4.83453 28241 ft 454 kts 247°
2026-05-01 14:58 54.57599 -4.87915 27196 ft 456 kts 246°
2026-05-01 14:58 54.56659 -4.92591 26080 ft 458 kts 246°
2026-05-01 14:58 54.55792 -4.96883 25134 ft 463 kts 246°
2026-05-01 14:59 54.54906 -5.01264 24658 ft 465 kts 246°
2026-05-01 14:59 54.54163 -5.04946 24484 ft 467 kts 246°
2026-05-01 14:59 54.53110 -5.10153 24254 ft 467 kts 246°
2026-05-01 14:59 54.52041 -5.15424 24079 ft 465 kts 246°
2026-05-01 15:00 54.49761 -5.25830 24112 ft 460 kts 237°
2026-05-01 15:00 54.47877 -5.30168 24121 ft 451 kts 221°
2026-05-01 15:00 54.45396 -5.33366 24120 ft 444 kts 206°
2026-05-01 15:01 54.42652 -5.35734 24129 ft 444 kts 204°
2026-05-01 15:01 54.39865 -5.38073 24114 ft 444 kts 204°
2026-05-01 15:01 54.37089 -5.40393 24109 ft 444 kts 204°
2026-05-01 15:01 54.34315 -5.42713 24113 ft 444 kts 204°
2026-05-01 15:02 54.31543 -5.45036 24116 ft 444 kts 204°
2026-05-01 15:02 54.29706 -5.46577 24116 ft 444 kts 204°
2026-05-01 15:02 54.25997 -5.49695 24116 ft 444 kts 204°
2026-05-01 15:02 54.23225 -5.52020 24116 ft 444 kts 204°
2026-05-01 15:03 54.20449 -5.54342 24119 ft 444 kts 204°
2026-05-01 15:03 54.17679 -5.56658 24116 ft 444 kts 204°
2026-05-01 15:03 54.14941 -5.58942 24116 ft 444 kts 204°
2026-05-01 15:03 54.12168 -5.61250 24117 ft 444 kts 204°
2026-05-01 15:04 54.09389 -5.63555 24119 ft 445 kts 204°
2026-05-01 15:04 54.06600 -5.65860 24119 ft 445 kts 204°
2026-05-01 15:04 54.03816 -5.68161 24120 ft 445 kts 204°
2026-05-01 15:04 54.01027 -5.70463 24116 ft 445 kts 204°
2026-05-01 15:05 53.98240 -5.72756 24115 ft 445 kts 202°
2026-05-01 15:05 53.95303 -5.74252 24115 ft 441 kts 186°
2026-05-01 15:05 53.92235 -5.74618 24118 ft 442 kts 183°
2026-05-01 15:05 53.89169 -5.74863 24117 ft 442 kts 182°
2026-05-01 15:06 53.86098 -5.75058 24119 ft 442 kts 182°
2026-05-01 15:06 53.83024 -5.75232 24116 ft 441 kts 181°
2026-05-01 15:06 53.79987 -5.75403 23813 ft 439 kts 182°
2026-05-01 15:06 53.76957 -5.75589 22581 ft 433 kts 182°
2026-05-01 15:07 53.73979 -5.75787 21387 ft 425 kts 182°
2026-05-01 15:07 53.71050 -5.75993 20245 ft 418 kts 182°
2026-05-01 15:07 53.68187 -5.76203 19117 ft 404 kts 182°
2026-05-01 15:07 53.65419 -5.76377 17716 ft 393 kts 179°
2026-05-01 15:08 53.62776 -5.75477 16323 ft 388 kts 158°
2026-05-01 15:08 53.60543 -5.72968 14999 ft 388 kts 141°
2026-05-01 15:08 53.58741 -5.69589 13696 ft 389 kts 130°
2026-05-01 15:08 53.57229 -5.65835 12322 ft 385 kts 128°
2026-05-01 15:09 53.55538 -5.62524 11121 ft 372 kts 141°
2026-05-01 15:09 53.53549 -5.59996 10549 ft 345 kts 150°
2026-05-01 15:09 53.51604 -5.57931 10333 ft 315 kts 151°
2026-05-01 15:09 53.49809 -5.56098 10206 ft 287 kts 155°
2026-05-01 15:10 53.48031 -5.55022 10067 ft 261 kts 171°
2026-05-01 15:10 53.44579 -5.56026 8765 ft 257 kts 210°
2026-05-01 15:10 53.43241 -5.58010 8124 ft 259 kts 230°
2026-05-01 15:11 53.42388 -5.60689 7444 ft 266 kts 249°
2026-05-01 15:11 53.41922 -5.66935 6020 ft 272 kts 261°
2026-05-01 15:11 53.41748 -5.70071 5470 ft 266 kts 260°
2026-05-01 15:12 53.41580 -5.73108 5150 ft 259 kts 260°
2026-05-01 15:12 53.41241 -5.79048 4479 ft 257 kts 262°
2026-05-01 15:12 53.41063 -5.82055 4195 ft 254 kts 261°
2026-05-01 15:13 53.40530 -5.90792 3918 ft 253 kts 262°
2026-05-01 15:14 53.40243 -5.96517 3584 ft 241 kts 269°
2026-05-01 15:14 53.40459 -5.99231 3270 ft 225 kts 276°
2026-05-01 15:14 53.40835 -6.03934 2720 ft 187 kts 272°
2026-05-01 15:15 53.41073 -6.08033 2260 ft 158 kts 270°
2026-05-01 15:15 53.41257 -6.11278 1873 ft 130 kts 269°
2026-05-01 15:16 53.41424 -6.14283 1521 ft 129 kts 268°
2026-05-01 15:16 53.41591 -6.17278 1171 ft 132 kts 266°
2026-05-01 15:17 53.41764 -6.20365 807 ft 132 kts 273°
2026-05-01 15:18 53.42017 -6.24894 290 ft 129 kts 271°
2026-05-01 15:18 53.42095 -6.26352 215 ft 115 kts 271°
2026-05-01 15:19 53.42293 -6.28103 213 ft 18 kts 317°
2026-05-01 15:19 53.42341 -6.27660 211 ft 38 kts 95°
2026-05-01 15:19 53.42315 -6.27205 211 ft 40 kts 95°
2026-05-01 15:20 53.42266 -6.26287 211 ft 31 kts 93°
2026-05-01 15:20 53.42369 -6.25978 211 ft 32 kts 46°
2026-05-01 15:20 53.42532 -6.25702 211 ft 33 kts 45°
2026-05-01 15:21 53.42669 -6.25466 212 ft 27 kts 46°
2026-05-01 15:21 53.42780 -6.25278 211 ft 22 kts 46°
2026-05-01 15:21 53.42876 -6.25195 214 ft 15 kts 340°
2026-05-01 15:21 53.42962 -6.25196 211 ft 9 kts 81°
2026-05-01 15:22 53.42969 -6.24953 213 ft 12 kts 30°
2026-05-01 15:22 53.43011 -6.24942 211 ft 3 kts
2026-05-01 15:22 53.43012 -6.24942 211 ft 0 kts